Date,TemperatureHighF,TemperatureAvgF,TemperatureLowF,DewpointHighF,DewpointAvgF,DewpointLowF,HumidityHigh,HumidityAvg,HumidityLow,PressureMaxIn,PressureMinIn,WindSpeedMaxMPH,WindSpeedAvgMPH,GustSpeedMaxMPH,PrecipitationSumIn
2013-1-19,73.0,51.3,29.0,15.0,10.3,0.0,51,24,10,29.84,29.78,3,0,8,0.00
2013-1-20,57.0,35.0,21.0,22.0,16.5,11.0,77,50,19,29.86,29.75,4,0,14,0.00
2013-1-21,67.0,40.3,17.0,26.0,13.2,1.0,87,44,13,29.84,29.70,4,0,8,0.00
2013-1-22,73.0,44.9,25.0,16.0,6.4,-7.0,47,25,10,29.80,29.67,4,1,14,0.00
2013-1-23,63.0,42.1,27.0,17.0,9.7,3.0,41,28,10,29.82,29.75,2,0,7,0.00
2013-1-24,78.0,51.0,30.0,31.0,19.5,7.0,50,33,10,29.77,29.61,3,1,16,0.00
2013-1-25,63.0,44.4,31.0,34.0,28.2,24.0,77,55,32,29.79,29.69,3,0,10,0.00
2013-1-26,65.0,41.7,27.0,37.0,30.5,23.0,91,68,29,29.71,29.44,2,0,5,0.01
2013-1-27,67.0,45.5,28.0,45.0,33.6,23.0,99,69,33,29.47,29.39,3,0,9,0.01
2013-1-28,65.0,41.9,27.0,35.0,29.1,23.0,97,65,28,29.42,29.23,8,1,13,0.00
2013-1-29,43.0,27.6,21.0,29.0,19.2,13.0,97,73,39,29.58,29.34,4,1,15,0.09
2013-1-30,44.0,29.3,13.0,21.0,15.0,8.0,90,58,37,29.58,29.47,5,1,14,0.01
2013-1-31,56.0,42.7,29.0,28.0,22.6,19.0,73,47,26,29.75,29.60,3,1,13,0.00
2013-2-1,57.0,37.3,22.0,28.0,21.4,16.0,80,56,25,29.82,29.67,5,1,15,0.00
2013-2-2,68.0,40.0,22.0,25.0,18.5,11.0,84,50,11,29.92,29.81,4,0,10,0.00
2013-2-3,59.0,41.3,24.0,25.0,15.6,9.0,73,41,15,29.86,29.55,1,0,7,0.00
2013-2-4,62.0,40.2,23.0,21.0,14.1,8.0,65,39,13,29.63,29.52,2,0,7,0.00
2013-2-5,69.0,43.6,25.0,26.0,19.8,16.0,71,43,15,29.69,29.52,4,1,13,0.00
2013-2-6,68.0,43.1,30.0,36.0,27.9,19.0,99,61,23,29.70,29.48,2,0,8,0.08
2013-2-7,52.0,36.8,26.0,35.0,28.5,21.0,99,76,33,29.79,29.66,4,1,14,0.14
2013-2-8,62.0,39.7,28.0,28.0,22.5,19.0,75,53,24,29.66,29.38,4,1,15,0.01
2013-2-9,45.0,31.7,22.0,30.0,24.6,16.0,91,76,49,29.39,29.22,2,0,7,0.00
2013-2-10,43.0,27.7,20.0,25.0,18.5,13.0,95,71,37,29.67,29.27,5,0,11,0.01
2013-2-11,41.0,25.2,14.0,22.0,16.7,11.0,91,71,42,29.67,29.57,2,0,6,0.01
2013-2-12,51.0,29.2,15.0,17.0,8.2,-2.0,88,49,11,29.66,29.62,3,1,10,0.00
2013-2-13,53.0,35.0,22.0,20.0,14.8,8.0,63,45,24,29.66,29.56,5,1,17,0.00
2013-2-14,42.0,28.1,22.0,25.0,20.2,15.0,86,73,47,29.87,29.63,3,1,12,0.00
2013-2-15,46.0,26.2,15.0,28.0,17.1,11.0,91,71,38,29.88,29.81,5,1,14,0.01
2013-2-16,64.0,41.9,21.0,24.0,17.2,14.0,82,43,18,29.81,29.62,4,1,17,0.01
2013-2-17,73.0,44.2,29.0,21.0,10.6,-4.0,56,30,10,29.62,29.25,6,1,17,0.00
2013-2-18,49.0,33.0,22.0,24.0,14.9,4.0,85,52,17,29.69,29.43,4,1,14,0.00
2013-2-19,52.0,29.6,16.0,20.0,13.2,6.0,70,52,28,29.68,29.44,2,0,5,0.00
2013-2-20,42.0,28.1,21.0,29.0,21.1,15.0,96,76,47,29.44,29.29,2,0,6,0.00
2013-2-21,38.0,22.6,16.0,25.0,18.0,14.0,94,84,58,29.52,29.35,2,0,8,0.11
2013-2-22,39.0,24.3,10.0,23.0,17.2,8.0,94,76,49,29.56,29.47,5,1,11,0.01
2013-2-23,54.0,33.4,17.0,29.0,20.3,9.0,94,62,29,29.52,29.26,4,0,9,0.01
2013-2-24,29.0,26.9,21.0,29.0,26.3,20.0,99,97,91,29.70,29.37,3,0,10,0.00
2013-2-25,48.0,24.6,11.0,28.0,15.4,10.0,99,73,24,29.69,29.46,4,0,15,0.12
2013-2-26,45.0,25.9,16.0,34.0,20.9,10.0,93,82,57,29.72,29.42,3,1,10,0.02
2013-2-27,47.0,28.2,14.0,23.0,16.1,8.0,86,63,31,29.82,29.72,4,1,10,0.01
2013-2-28,53.0,33.0,11.0,20.0,14.5,6.0,84,50,22,29.83,29.75,6,1,14,0.00
2013-3-1,54.0,37.8,25.0,26.0,22.1,18.0,77,55,30,29.91,29.80,3,1,10,0.00
2013-3-2,71.0,46.8,26.0,32.0,27.6,21.0,84,53,22,29.89,29.69,2,0,8,0.00
2013-3-3,68.0,52.2,38.0,32.0,27.3,23.0,71,41,21,29.69,29.35,4,1,12,0.00
2013-3-4,39.0,30.0,17.0,29.0,23.6,12.0,95,78,61,29.81,29.37,4,1,15,0.00
2013-3-5,52.0,30.0,10.0,28.0,18.5,6.0,87,66,38,29.83,29.72,4,0,9,0.02
2013-3-6,68.0,39.7,19.0,35.0,24.6,16.0,95,64,15,29.73,29.49,4,0,16,0.02
2013-3-7,72.0,50.1,30.0,35.0,27.0,20.0,82,47,15,29.61,29.50,6,1,18,0.00
2013-3-8,56.0,40.5,29.0,36.0,31.5,24.0,89,71,47,29.61,29.35,2,0,7,0.00
2013-3-9,35.0,31.7,26.0,34.0,30.1,20.0,99,93,77,29.69,29.31,2,0,8,0.00
2013-3-10,49.0,34.1,16.0,34.0,22.7,15.0,99,66,38,29.73,29.66,3,0,10,0.17
2013-3-11,58.0,40.4,30.0,33.0,26.3,21.0,97,62,31,29.75,29.54,5,1,15,0.01
2013-3-12,52.0,34.1,26.0,37.0,29.3,23.0,99,84,54,29.88,29.75,2,0,7,0.09
2013-3-13,73.0,50.6,29.0,40.0,30.7,26.0,95,54,20,29.86,29.77,3,0,9,0.01
2013-3-14,81.0,55.6,34.0,38.0,27.6,16.0,76,42,10,29.91,29.78,3,0,11,0.00
2013-3-15,81.0,62.9,45.0,30.0,26.9,22.0,54,29,11,29.78,29.54,5,1,14,0.00
2013-3-16,57.0,49.1,42.0,41.0,35.5,25.0,79,60,29,29.64,29.48,4,0,11,0.00
2013-3-17,67.0,48.7,34.0,36.0,27.8,13.0,84,50,12,29.49,29.23,8,2,17,0.00
2013-3-18,57.0,42.4,26.0,23.0,16.6,12.0,60,37,20,29.57,29.47,4,1,33,0.00
2013-3-19,61.0,43.3,29.0,23.0,13.8,-4.0,68,35,10,29.92,29.57,4,1,13,0.00
2013-3-20,66.0,40.9,22.0,29.0,23.0,16.0,81,53,19,29.92,29.41,3,0,8,0.00
2013-3-21,66.0,44.0,32.0,37.0,27.3,16.0,75,54,27,29.48,29.21,3,1,13,0.00
2013-3-22,56.0,37.0,28.0,30.0,25.6,19.0,98,67,33,29.51,29.26,7,1,17,0.00
2013-3-23,27.0,20.8,15.0,27.0,18.9,13.0,98,92,80,29.75,29.51,2,0,8,0.00
2013-3-24,42.0,21.5,3.0,25.0,13.0,1.0,92,72,42,29.77,29.66,2,0,8,0.15
2013-3-25,41.0,26.1,8.0,21.0,14.2,6.0,92,65,32,29.82,29.76,3,0,8,0.01
2013-3-26,60.0,36.2,17.0,34.0,22.2,12.0,82,62,30,29.76,29.53,3,1,8,0.00
2013-3-27,64.0,44.1,27.0,39.0,32.2,25.0,93,67,34,29.71,29.62,4,1,11,0.00
2013-3-28,69.0,49.2,32.0,39.0,34.0,29.0,93,61,26,29.74,29.67,3,0,10,0.00
2013-3-29,77.0,53.6,36.0,39.0,33.8,31.0,83,52,19,29.75,29.68,3,0,10,0.00
2013-3-30,76.0,54.1,37.0,41.0,33.0,-99.9,82,52,17,29.83,29.64,4,1,15,0.00
2013-3-31,80.0,54.2,34.0,40.0,29.2,16.0,95,52,10,29.82,29.58,4,1,11,0.00
2013-4-1,65.0,47.5,32.0,39.0,33.8,27.0,84,61,38,29.76,29.61,3,1,11,0.01
2013-4-2,44.0,39.4,37.0,40.0,36.4,34.0,99,89,76,29.73,29.67,0,0,5,0.09
2013-4-3,69.0,49.0,37.0,44.0,35.4,28.0,99,67,22,29.75,29.67,2,0,8,0.06
2013-4-4,76.0,55.2,33.0,38.0,31.4,28.0,85,47,18,29.78,29.65,3,1,11,0.01
2013-4-5,81.0,61.3,46.0,38.0,29.8,25.0,55,33,14,29.65,29.38,5,1,19,0.00
2013-4-6,71.0,56.0,42.0,37.0,29.5,25.0,59,38,20,29.59,29.51,4,1,13,0.00
2013-4-7,74.0,56.2,40.0,41.0,33.5,28.0,86,48,19,29.53,29.38,4,1,13,0.00
2013-4-8,71.0,50.7,29.0,39.0,31.1,24.0,92,53,18,29.45,29.10,11,1,23,0.00
2013-4-9,27.0,18.5,11.0,25.0,14.9,8.0,95,86,68,29.75,29.45,3,1,17,0.00
2013-4-10,34.0,20.9,8.0,19.0,13.1,6.0,91,73,49,29.73,29.49,2,0,9,0.08
2013-4-11,60.0,40.9,20.0,38.0,29.6,16.0,90,67,37,29.54,29.37,4,1,15,0.01
2013-4-12,69.0,45.7,31.0,40.0,33.9,23.0,96,68,19,29.60,29.51,5,1,18,0.00
2013-4-13,79.0,53.3,30.0,35.0,28.7,18.0,98,52,12,29.58,29.13,3,1,8,0.00
2013-4-14,59.0,46.3,33.0,40.0,27.1,13.0,99,56,17,29.42,29.21,6,2,20,0.15
2013-4-15,39.0,32.4,24.0,29.0,24.8,17.0,96,76,40,29.61,29.36,6,1,15,0.00
2013-4-16,45.0,32.8,24.0,34.0,28.4,23.0,97,85,65,29.62,29.42,8,1,20,0.00
2013-4-17,35.0,27.9,20.0,33.0,26.9,19.0,99,96,87,29.72,29.52,0,0,4,0.05
2013-4-18,47.0,30.5,14.0,25.0,18.3,12.0,97,64,37,29.74,29.66,2,0,8,0.01
2013-4-19,65.0,44.9,26.0,27.0,21.5,14.0,67,42,23,29.72,29.56,3,0,9,0.00
2013-4-20,69.0,50.3,34.0,37.0,32.7,27.0,79,53,27,29.63,29.52,4,1,8,0.00
2013-4-21,73.0,54.0,36.0,37.0,31.3,26.0,79,48,18,29.69,29.60,2,0,14,0.00
2013-4-22,62.0,36.5,23.0,40.0,29.7,22.0,96,78,44,29.86,29.53,4,0,15,0.00
2013-4-23,46.0,29.8,21.0,26.0,22.0,20.0,97,76,46,29.83,29.70,2,0,5,0.18
2013-4-24,63.0,42.6,23.0,27.0,22.2,18.0,84,51,19,29.80,29.71,3,0,9,0.18
2013-4-25,71.0,53.5,32.0,33.0,26.8,18.0,72,41,14,29.76,29.54,4,0,8,0.00
2013-4-26,75.0,57.0,37.0,35.0,27.5,23.0,68,37,15,29.83,29.64,5,1,11,0.00
2013-4-27,84.0,63.8,46.0,33.0,25.6,17.0,53,28,10,29.83,29.66,4,1,14,0.00
2013-4-28,88.0,68.6,48.0,38.0,27.8,24.0,50,25,10,29.68,29.51,3,1,15,0.00
2013-4-29,89.0,69.7,48.0,40.0,32.3,25.0,64,30,11,29.59,29.32,4,1,11,0.00
2013-4-30,66.0,55.3,41.0,44.0,36.9,24.0,89,52,21,29.63,29.33,3,1,17,0.00
2013-5-1,41.0,33.3,26.0,39.0,31.9,25.0,99,94,87,30.12,29.63,1,0,8,0.13
2013-5-2,55.0,38.3,22.0,34.0,25.8,21.0,98,66,32,30.17,29.97,2,0,6,0.05
2013-5-3,69.0,50.1,27.0,32.0,27.0,23.0,88,47,20,29.97,29.69,3,0,11,0.01
2013-5-4,66.0,51.9,34.0,37.0,32.3,27.0,78,49,30,29.80,29.70,3,1,9,0.00
2013-5-5,66.0,52.1,38.0,35.0,31.1,27.0,68,47,28,29.80,29.68,2,0,7,0.00
2013-5-6,71.0,55.9,41.0,42.0,36.4,28.0,69,50,31,29.72,29.56,2,0,10,0.00
2013-5-7,79.0,58.7,47.0,47.0,41.5,38.0,89,57,26,29.65,29.52,3,0,8,0.05
2013-5-8,71.0,49.8,43.0,52.0,45.3,41.0,99,86,46,29.70,29.59,6,1,17,0.39
2013-5-9,63.0,49.6,43.0,53.0,45.8,40.0,99,87,60,29.80,29.70,2,0,8,0.34
2013-5-10,74.0,54.8,40.0,48.0,39.4,-99.9,91,63,33,29.89,29.78,3,1,11,0.01
2013-5-11,76.0,58.8,43.0,46.0,41.2,-99.9,86,57,26,29.98,29.83,4,1,14,0.00
2013-5-12,86.0,68.5,51.0,45.0,39.9,37.0,63,39,19,29.84,29.75,4,1,14,0.00
2013-5-13,91.0,74.9,55.0,46.0,41.7,38.0,53,33,17,29.80,29.69,4,1,15,0.00
2013-5-14,92.0,72.9,63.0,49.0,43.7,39.0,49,37,16,29.69,29.61,7,2,25,0.00
2013-5-15,90.0,67.1,58.0,54.0,47.1,42.0,84,52,22,29.65,29.55,4,1,13,0.01
2013-5-16,92.0,62.2,49.0,52.0,26.9,-99.9,87,51,16,29.60,29.47,4,1,12,0.01
2013-5-17,97.0,71.9,54.0,47.0,30.0,-99.9,69,33,10,29.56,29.42,5,1,16,0.00
2013-5-18,86.0,67.4,56.0,43.0,34.0,27.0,57,31,14,29.57,29.43,4,1,17,0.00
2013-5-19,78.0,60.0,50.0,44.0,39.0,32.0,71,51,21,29.51,29.41,3,1,13,0.00
2013-5-20,73.0,54.8,47.0,51.0,44.4,37.0,91,70,35,29.65,29.49,4,0,11,0.09
2013-5-21,77.0,59.8,40.0,46.0,39.8,35.0,98,55,24,29.66,29.51,2,0,11,0.02
2013-5-22,84.0,64.9,45.0,50.0,41.1,36.0,76,47,21,29.68,29.52,4,1,17,0.00
2013-5-23,73.0,61.4,50.0,53.0,48.8,46.0,89,65,45,29.71,29.59,7,2,20,0.00
2013-5-24,94.0,72.8,56.0,57.0,43.5,25.0,78,45,10,29.62,29.53,6,2,20,0.00
2013-5-25,97.0,75.6,56.0,59.0,40.8,22.0,91,43,10,29.65,29.50,3,0,11,0.00
2013-5-26,94.0,74.0,57.0,47.0,36.6,27.0,55,30,10,29.59,29.50,4,1,12,0.00
2013-5-27,93.0,73.6,54.0,52.0,36.0,24.0,72,33,10,29.55,29.41,4,0,14,0.01
2013-5-28,87.0,68.2,47.0,52.0,42.6,35.0,72,43,17,29.49,29.24,8,1,21,0.00
2013-5-29,73.0,59.9,48.0,57.0,47.9,36.0,99,66,45,29.39,29.28,2,0,9,0.28
2013-5-30,77.0,62.9,47.0,40.0,35.1,27.0,71,39,16,29.52,29.35,7,1,22,0.01
2013-5-31,80.0,62.9,43.0,38.0,27.9,16.0,74,34,10,29.65,29.50,5,1,15,0.00
2013-6-1,80.0,60.5,44.0,44.0,39.8,27.0,80,50,27,29.80,29.65,2,0,8,0.00
2013-6-2,93.0,69.4,44.0,48.0,39.7,33.0,80,41,13,29.80,29.49,3,0,12,0.00
2013-6-3,102.0,78.0,54.0,43.0,35.8,27.0,56,27,10,29.57,29.41,4,1,13,0.00
2013-6-4,82.0,66.3,52.0,55.0,48.7,32.0,94,56,25,29.83,29.57,2,0,11,0.13
2013-6-5,59.0,52.6,47.0,51.0,48.9,46.0,99,88,73,29.81,29.74,3,0,8,0.18
2013-6-6,49.0,49.0,49.0,48.0,47.8,47.0,96,95,94,29.76,29.75,0,0,0,0.01
2013-6-25,86.0,78.5,73.0,45.0,44.2,44.0,37,31,23,29.67,29.58,0,0,4,0.00
2013-6-26,103.0,75.5,60.0,48.0,45.4,41.0,58,39,13,29.72,29.65,1,0,7,0.00
2013-6-27,103.0,82.6,63.0,51.0,47.5,45.0,59,33,14,29.85,29.72,1,0,7,0.00
2013-6-28,96.0,72.7,66.0,60.0,53.9,50.0,65,52,31,29.86,29.76,4,0,20,0.02
2013-6-29,86.0,71.3,60.0,63.0,57.0,54.0,86,62,36,29.85,29.74,4,0,20,0.02
2013-6-30,83.0,69.6,60.0,63.0,59.0,54.0,98,71,48,29.82,29.77,1,0,7,0.09
2013-7-1,82.0,62.3,55.0,62.0,56.9,53.0,99,85,40,29.87,29.80,2,0,8,0.13
2013-7-2,88.0,61.5,54.0,60.0,55.7,51.0,97,83,34,29.87,29.75,2,0,9,0.04
2013-7-3,85.0,65.2,54.0,55.0,51.4,47.0,87,63,27,29.75,29.58,1,0,4,0.00
2013-7-4,80.0,68.1,61.0,55.0,51.6,50.0,68,56,37,29.65,29.57,2,0,6,0.00
2013-7-5,87.0,70.6,64.0,59.0,54.5,51.0,67,57,36,29.58,29.51,3,0,11,0.01
2013-7-6,94.0,73.6,67.0,60.0,55.4,53.0,63,54,25,29.64,29.54,3,0,10,0.01
2013-7-7,88.0,71.7,62.0,59.0,55.8,53.0,74,58,35,29.71,29.63,3,0,15,0.01
2013-7-8,92.0,70.8,65.0,58.0,52.3,-99.9,70,56,26,29.73,29.67,4,1,12,0.01
2013-7-9,98.0,74.7,65.0,54.0,51.0,45.0,61,46,17,29.81,29.73,2,0,9,0.00
2013-7-10,93.0,69.3,61.0,62.0,51.6,-99.9,81,59,31,29.82,29.68,5,1,17,0.00
2013-7-11,104.0,71.5,63.0,63.0,57.9,50.0,86,66,17,29.73,29.54,3,1,20,0.12
2013-7-12,85.0,68.3,64.0,65.0,59.9,56.0,94,76,50,29.69,29.59,1,0,7,0.22
2013-7-13,87.0,68.5,63.0,65.0,63.0,61.0,99,84,44,29.79,29.66,2,0,15,0.20
2013-7-14,86.0,69.0,59.0,67.0,62.8,59.0,99,83,46,29.83,29.72,1,0,8,0.20
2013-7-15,81.0,68.6,63.0,68.0,62.7,49.0,99,83,50,29.81,29.72,4,1,11,0.66
2013-7-16,87.0,65.7,57.0,58.0,53.4,49.0,84,66,33,29.82,29.74,5,2,17,0.65
2013-7-17,82.0,68.0,60.0,61.0,56.8,53.0,87,70,37,29.83,29.72,5,2,17,0.00
2013-7-18,82.0,69.7,62.0,59.0,56.2,54.0,77,63,42,29.78,29.71,3,0,11,0.00
2013-7-19,81.0,68.9,63.0,61.0,58.7,57.0,80,70,51,29.79,29.71,0,0,5,0.00
2013-7-20,88.0,64.9,60.0,65.0,56.9,-99.9,92,79,46,29.71,29.59,1,0,6,0.00
2013-7-21,79.0,67.8,61.0,59.0,55.9,49.0,85,67,35,29.65,29.55,4,1,15,0.00
2013-7-22,79.0,74.7,63.0,52.0,49.1,46.0,68,42,32,29.61,29.56,2,0,8,0.00
2013-7-23,88.0,74.5,67.0,60.0,52.1,46.0,62,46,29,29.75,29.60,2,0,7,0.00
2013-7-24,85.0,73.7,65.0,66.0,60.1,54.0,88,64,39,29.77,29.68,6,1,16,0.00
2013-7-25,84.0,64.0,59.0,62.0,57.4,56.0,91,80,42,29.85,29.67,2,0,8,0.05
2013-7-26,88.0,65.3,58.0,57.0,54.3,49.0,85,70,35,29.85,29.74,4,0,10,0.05
2013-7-27,87.0,68.4,61.0,63.0,57.0,52.0,99,69,40,29.79,29.65,4,0,9,0.07
2013-7-28,79.0,66.4,61.0,65.0,61.8,59.0,99,86,62,29.70,29.57,1,0,6,0.11
2013-7-29,78.0,66.0,59.0,65.0,60.7,56.0,99,84,57,29.77,29.56,1,0,7,0.04
2013-7-30,80.0,63.3,58.0,59.0,56.3,54.0,91,79,42,29.83,29.77,2,0,12,0.04
2013-7-31,86.0,70.5,63.0,59.0,57.0,51.0,80,64,30,29.90,29.75,1,0,4,0.04
2013-8-1,84.0,69.1,62.0,62.0,57.8,53.0,88,70,35,29.82,29.60,2,0,9,0.00
2013-8-2,74.0,65.9,60.0,57.0,55.0,54.0,82,69,52,29.68,29.59,4,0,19,0.12
2013-8-3,89.0,70.5,59.0,63.0,56.8,53.0,99,64,37,29.86,29.67,4,1,20,0.39
2013-8-4,86.0,66.9,59.0,61.0,57.3,53.0,99,73,32,29.84,29.69,4,1,16,0.40
2013-8-5,80.0,70.0,67.0,58.0,55.2,53.0,70,60,41,29.73,29.65,4,0,15,0.01
2013-8-6,76.0,69.1,65.0,58.0,53.9,52.0,68,59,44,29.69,29.60,2,0,11,0.00
2013-8-7,77.0,69.4,61.0,60.0,56.1,53.0,86,63,52,29.73,29.63,3,1,13,0.00
2013-8-8,78.0,62.8,57.0,63.0,58.7,53.0,99,88,53,29.77,29.64,2,0,9,0.15
2013-8-9,81.0,59.2,52.0,59.0,53.9,51.0,97,84,44,29.79,29.73,2,0,7,0.21
2013-8-10,67.0,58.4,53.0,58.0,52.6,50.0,91,81,62,29.80,29.75,0,0,7,0.08
2013-8-11,80.0,63.2,58.0,57.0,53.1,50.0,83,70,45,29.79,29.73,2,0,7,0.25
2013-8-12,78.0,61.9,55.0,60.0,54.4,51.0,98,78,51,29.84,29.72,3,0,10,0.07
2013-8-13,81.0,62.6,54.0,59.0,52.3,-99.9,99,77,43,29.83,29.73,2,0,8,0.11
2013-8-14,87.0,61.6,54.0,57.0,52.1,47.0,99,74,31,29.80,29.71,0,0,4,0.00
2013-8-30,77.0,73.2,71.0,63.0,59.7,59.0,71,63,53,29.78,29.71,3,1,8,0.02
2013-8-31,81.0,69.4,65.0,60.0,53.1,-99.9,76,60,42,29.70,29.65,1,0,6,0.02
2013-9-1,81.0,69.9,63.0,64.0,58.6,56.0,82,68,56,29.79,29.70,2,0,7,0.00
2013-9-2,93.0,73.3,59.0,60.0,57.7,56.0,94,61,33,29.72,29.63,3,0,8,0.00
2013-9-3,97.0,74.8,67.0,59.0,57.0,56.0,72,56,27,29.72,29.65,2,0,9,0.00
2013-9-4,95.0,74.5,71.0,62.0,57.3,56.0,63,56,30,29.78,29.71,4,0,8,0.00
2013-9-5,99.0,72.0,65.0,59.0,56.6,55.0,75,60,25,29.79,29.70,5,0,17,0.00
2013-9-6,89.0,71.9,62.0,56.0,54.1,52.0,69,55,30,29.73,29.65,0,0,3,0.00
2013-9-7,100.0,65.7,59.0,56.0,47.5,-99.9,87,62,15,29.72,29.60,1,0,8,0.00
2013-9-8,86.0,70.2,59.0,57.0,52.7,48.0,71,55,32,29.64,29.49,1,0,14,0.00
2013-9-11,73.0,63.1,60.0,67.0,62.6,60.0,99,98,81,29.77,29.72,1,0,3,0.44
2013-9-12,67.0,61.6,59.0,67.0,61.6,59.0,99,99,98,29.82,29.74,2,0,8,1.31
2013-9-13,79.0,64.4,59.0,65.0,61.5,59.0,99,91,59,29.74,29.50,3,0,11,0.38
2013-9-14,70.0,59.0,57.0,64.0,56.6,-99.9,99,96,81,29.60,29.52,4,0,15,0.26
2013-9-15,65.0,57.5,54.0,60.0,57.2,54.0,99,98,85,29.81,29.61,1,0,4,0.07
2013-9-16,75.0,58.1,50.0,61.0,55.2,50.0,99,91,60,29.80,29.63,1,0,5,0.01
2013-9-17,90.0,64.5,56.0,55.0,52.7,46.0,95,70,22,29.64,29.44,2,0,8,0.01
2013-9-18,70.0,63.2,60.0,53.0,51.2,47.0,78,66,44,29.51,29.44,2,0,7,0.00
2013-9-19,67.0,59.6,52.0,51.0,46.7,39.0,75,63,48,29.73,29.51,1,0,5,0.00
2013-9-20,74.0,56.1,48.0,50.0,48.3,46.0,94,76,41,29.73,29.59,0,0,5,0.00
2013-9-21,87.0,59.0,51.0,52.0,45.2,-99.9,94,70,23,29.62,29.42,1,0,8,0.00
2013-9-22,82.0,63.4,54.0,53.0,49.7,47.0,85,63,36,29.42,29.23,3,1,23,0.02
2013-9-23,72.0,54.3,49.0,53.0,46.8,37.0,99,79,33,29.61,29.18,2,0,11,0.63
2013-10-2,64.0,54.3,47.0,49.0,45.3,41.0,86,72,57,29.53,29.48,1,0,5,0.00
2013-10-3,68.0,50.2,40.0,51.0,45.1,39.0,98,84,53,29.49,29.31,1,0,5,0.01
2013-10-4,50.0,38.8,29.0,50.0,36.2,27.0,99,90,71,29.69,29.33,2,0,7,0.33
2013-10-5,63.0,36.2,27.0,33.0,27.1,23.0,97,75,23,29.70,29.65,2,0,5,0.15
2013-10-6,55.0,43.2,34.0,40.0,32.0,22.0,80,65,50,29.75,29.70,0,0,2,0.00
2013-10-7,63.0,53.2,40.0,39.0,36.3,34.0,83,56,36,29.72,29.50,0,0,2,0.00
2013-10-8,84.0,63.1,53.0,41.0,37.2,33.0,61,40,16,29.44,29.30,2,0,8,0.00
2013-10-9,65.0,49.7,43.0,46.0,41.3,38.0,87,74,50,29.52,29.40,0,0,2,0.00
2013-10-10,62.0,49.4,42.0,52.0,44.7,42.0,99,85,63,29.52,29.14,2,0,14,0.00
2013-10-11,61.0,47.6,41.0,42.0,37.4,32.0,94,69,42,29.57,29.14,4,0,10,0.00
2013-10-12,65.0,46.8,39.0,44.0,38.5,-99.9,99,79,46,29.68,29.57,4,0,12,0.00
2013-10-13,69.0,46.5,35.0,48.0,40.3,34.0,96,80,48,29.65,29.45,3,0,10,0.00
2013-10-14,56.0,47.3,38.0,48.0,41.9,35.0,99,82,62,29.67,29.37,3,0,11,0.13
2013-10-15,44.0,38.8,35.0,35.0,30.6,28.0,83,72,63,29.78,29.67,2,0,7,0.01
2013-10-16,58.0,35.6,28.0,32.0,29.0,26.0,97,79,37,29.69,29.52,1,0,4,0.00
2013-10-20,51.0,41.6,35.0,40.0,35.0,29.0,99,79,51,29.63,29.43,1,0,7,0.11
2013-10-21,58.0,35.7,29.0,35.0,31.8,29.0,99,87,39,29.67,29.60,0,0,4,0.01
2013-10-22,61.0,43.8,35.0,38.0,33.0,29.0,81,67,42,29.68,29.63,0,0,4,0.01
2013-10-23,56.0,47.0,39.0,39.0,36.8,33.0,83,68,53,29.70,29.63,0,0,2,0.00
2013-10-24,58.0,41.2,33.0,43.0,36.5,32.0,97,84,58,29.73,29.67,0,0,2,0.00
2013-10-25,58.0,45.1,32.0,39.0,36.6,32.0,99,74,50,29.72,29.63,0,0,2,0.00
2013-10-26,62.0,43.7,36.0,41.0,34.0,-99.9,96,73,41,29.83,29.66,1,0,3,0.00
2013-10-27,74.0,48.2,40.0,35.0,32.7,30.0,81,58,20,29.63,29.39,1,0,8,0.00
2013-10-28,47.0,38.1,34.0,38.0,32.3,-99.9,99,85,53,29.56,29.41,0,0,4,0.00
2013-10-29,44.0,37.9,34.0,39.0,35.4,34.0,99,91,74,29.52,29.38,2,0,5,0.01
2013-10-30,45.0,36.4,33.0,41.0,35.5,33.0,99,96,76,29.40,29.36,3,0,11,0.07
2013-11-23,-200.0,0.0,200.0,-99.9,-99.9,-99.9,0,0,100,29.91,29.91,0,0,2,0.00
2013-11-25,27.0,27.0,27.0,22.0,22.0,22.0,80,80,80,29.91,29.91,0,0,2,0.00
2013-11-26,27.0,27.0,27.0,22.0,22.0,22.0,80,80,80,29.91,29.91,0,0,2,0.00
2013-11-27,27.0,27.0,27.0,22.0,22.0,22.0,80,80,80,29.91,29.91,0,0,2,0.00
2013-12-10,27.0,27.0,27.0,22.0,22.0,22.0,80,80,80,29.91,29.91,0,0,2,0.00
2013-12-11,27.0,27.0,27.0,22.0,22.0,22.0,80,80,80,29.91,29.91,0,0,2,0.00
2013-12-12,27.0,27.0,27.0,22.0,22.0,22.0,80,80,80,29.91,29.91,0,0,2,0.00
2013-12-13,27.0,27.0,27.0,22.0,22.0,22.0,80,80,80,29.91,29.91,0,0,2,0.00
2013-12-14,27.0,26.4,27.0,22.0,19.2,-99.9,80,78,80,29.91,29.91,0,0,2,0.00
2013-12-19,27.0,27.0,27.0,22.0,22.0,22.0,80,80,80,29.91,29.91,0,0,2,0.00
2013-12-20,27.0,27.0,27.0,22.0,22.0,22.0,80,80,80,29.91,29.91,0,0,2,0.00
2013-12-21,27.0,26.6,27.0,22.0,20.2,-99.9,80,79,80,29.91,29.91,0,0,2,0.00
2013-12-22,27.0,27.0,27.0,22.0,22.0,22.0,80,80,80,29.91,29.91,0,0,2,0.00
2013-12-28,27.0,24.8,27.0,22.0,11.8,-99.9,80,73,80,29.91,29.91,0,0,2,0.00
2013-12-29,27.0,27.0,27.0,22.0,22.0,22.0,80,80,80,29.91,29.91,0,0,2,0.00
2014-1-1,27.0,27.0,27.0,22.0,22.0,22.0,80,80,80,29.91,29.91,0,0,2,0.00
2014-1-2,27.0,27.0,27.0,22.0,22.0,22.0,80,80,80,29.91,29.91,0,0,2,0.00